Regional Weather Roundup
Issued by NWS

Home | Current Version | Previous Version | Graphics & Text | Print | Product List | Glossary On
Versions: 1 2 3 4 5 6 7 8 9 10 11 12 13 14 15 16 17 18 19 20 21 22 23 24 25 26 27 28 29 30 31 32 33 34 35 36 37 38 39 40 41 42 43 44 45 46 47 48 49 50
000
ASUS43 KOAX 252310
RWRNE

WEATHER ROUNDUP FOR NEBRASKA
NATIONAL WEATHER SERVICE OMAHA NE
600 PM CDT SUN SEP 25 2016

NOTES: SATELLITE DATA IS BEING USED TO AUGMENT CLOUD COVER ABOVE
       12000 FEET.
       "FAIR" INDICATES FEW OR NO CLOUDS BELOW 12,000 FEET WITH NO
       SIGNIFICANT WEATHER AND/OR OBSTRUCTIONS TO VISIBILITY.

  * THESE STATIONS DO NOT REPORT WEATHER SUCH AS RAIN...SNOW OR FOG.

NEZ001>004-019>022-054>056-260000-
NEBRASKA PANHANDLE

CITY           SKY/WX    TMP DP  RH WIND       PRES   REMARKS
SCOTTSBLUFF    SUNNY     67  36  31 NW13      30.34F
ALLIANCE       SUNNY     63  31  30 NW18G24   30.33S
CHADRON        SUNNY     64  27  24 NW16      30.32S
KIMBALL        SUNNY     63  37  37 N10G17    30.37S
SIDNEY         LGT RAIN  65  34  31 N15G24    30.36S
$$

NEZ057>060-069>072-079>082-260000-
SOUTHWEST NEBRASKA

CITY           SKY/WX    TMP DP  RH WIND       PRES   REMARKS
NORTH PLATTE   SUNNY     72  21  14 N15G28    30.28R
IMPERIAL       SUNNY     69  28  21 N22       30.31R
LEXINGTON      SUNNY     69  20  15 NW14G22   30.25R
MCCOOK         SUNNY     71  22  15 N20G26    30.27R
OGALLALA       SUNNY     70  31  24 NW20G25   30.31S
$$

NEZ005>010-023>029-035>040-094-260000-
NORTH CENTRAL NEBRASKA

CITY           SKY/WX    TMP DP  RH WIND       PRES   REMARKS
VALENTINE      SUNNY     65  24  21 NW22G32   30.25R
AINSWORTH      SUNNY     64  31  28 NW21G29   30.25R
BROKEN BOW     SUNNY     68  19  15 NW18G26   30.24R
O`NEILL        SUNNY     67  23  19 NW21G31   30.21R
ORD            SUNNY     68  26  20 N17G24    30.21R
THEDFORD       SUNNY     66  25  21 NW23G33   30.28S
$$

NEZ041-046>049-061>064-073>077-083>087-260000-
SOUTH CENTRAL NEBRASKA

CITY           SKY/WX    TMP DP  RH WIND       PRES   REMARKS
GRAND ISLAND   SUNNY     70  29  21 NW18      30.20R
AURORA         SUNNY     69  31  24 N16       30.20R
HASTINGS       SUNNY     70  29  21 NW18G26   30.22R
HEBRON         SUNNY     71  36  27 N14G21    30.18R
HOLDREGE       SUNNY     70  19  14 N14       30.24R
KEARNEY *      SUNNY     72  21  15 N21G28    30.22R
YORK           SUNNY     70  32  24 NW12G17   30.18R
$$

NEZ011>018-030>034-042>045-260000-
NORTHEAST NEBRASKA

CITY           SKY/WX    TMP DP  RH WIND       PRES   REMARKS
NORFOLK        SUNNY     67  32  27 NW23G29   30.16R
ALBION         SUNNY     67  32  27 NW15G24   30.19R
BLAIR          PTSUNNY   69  46  43 NW9       30.13R
FREMONT        MOSUNNY   69  42  37 NW16G22   30.14R
TEKAMAH        MOSUNNY   69  43  38 NW16G22   30.11R
WAYNE          SUNNY     67  37  32 NW16G31   30.14R
$$

NEZ050>053-065>068-078-088>093-260000-
SOUTHEAST NEBRASKA

CITY           SKY/WX    TMP DP  RH WIND       PRES   REMARKS
LINCOLN        SUNNY     73  41  31 NW17G24   30.15R
OMAHA EPPLEY   PTSUNNY   70  48  45 NW16      30.12R
BEATRICE       SUNNY     72  44  37 NW18      30.15R
FALLS CITY     CLOUDY    72  49  44 NW10      30.12R
NEBRASKA CITY  MOSUNNY   70  33  25 N9G16     30.14R
PLATTSMOUTH    MOSUNNY   70  41  34 NW13G20   30.13R
$$

NEZ044-045-051>053-067-260000-
OMAHA AREA

CITY           SKY/WX    TMP DP  RH WIND       PRES   REMARKS
OMAHA EPPLEY   PTSUNNY   70  48  45 NW16      30.12R
BLAIR          PTSUNNY   69  46  43 NW9       30.13R
FREMONT        MOSUNNY   69  42  37 NW16G22   30.14R
MILLARD        SUNNY     70  47  44 NW9       30.13R
OFFUTT AFB     MOSUNNY   70  48  46 NW12G20   30.12R
PLATTSMOUTH    MOSUNNY   70  41  34 NW13G20   30.13R
WAHOO          FAIR      71  39  31 NW12G21   30.14R
$$



USA.gov is the U.S. government's official web portal to all federal, state and local government web resources and services.